Weina-1 02 weixing

operational
NORAD ID: 43279 Int'l Des: 2018-034 Owner: WEINA Country: CN
LEO

About Weina-1 02 weixing

Description loading...

Live Position

Loading 3D Globe...

Upcoming Passes

Altitude History

Altitude vs Time

uPlot chart will show altitude changes over time

Two-Line Element Set

1 43279U 18034E 26015.85226263 -.00000032 00000-0 80419-4 0 9991
2 43279 63.3959 123.7425 0261581 7.3915 353.0851 13.45356723381718
Epoch: Jan 15, 2026 • Age: 8 hours

Current Status

Altitude 1056.1 km
Velocity 7.35 km/s
Sub-Earth Point 63.26°N, 28.74°E
Launch Date Apr 10, 2018
Age 7.7 years
Type other

Technical Details

Classification Payload
Mass 10.00 kg
Dry Mass 10.00 kg
Total Mass 10.00 kg
Length 0.30 m
Diameter 0.10 m
Span 0.30 m
Shape Box
Manufacturer SECM
Phase Status In Orbit
Owner/State WEINA/CN

Large Constellations

Loading constellations...